Location: Malvern Link
(52.1333°N, 2.3000°W)
Time: 14:30:38
(UTC+00:00)

Cosmos 1455 Rocket - Pass Details

Date: 18 September 2020
Orbit: 604 x 630 km, 82.5° (Epoch: 22 October)

Event Time Altitude Azimuth Distance (km) Brightness Sun altitude
Exits shadow 21:22:59 32° 24° (NNE) 1,068 4.4 -26.8°
Drops below altitude 10° 21:25:26 10° 15° (NNE) 1,993 6.0 -27.0°
Sets 21:27:40 0° 13° (NNE) 2,899 6.9 -27.3°
